{"data":{"norad_id":40717,"epoch":"2026-05-25T05:13:03.840384Z","epoch_age_seconds":66551,"freshness":"FRESH","line1":"1 40717U 15032C   26145.21740556  .00000378  00000+0  49497-4 0  9992","line2":"2 40717  97.6600  14.5861 0006379 123.2149 236.9679 14.85703308586506","mean_motion":14.85703308,"eccentricity":0.0006379,"inclination_deg":97.66,"raan_deg":14.5861,"arg_perigee_deg":123.2149,"mean_anomaly_deg":236.9679,"bstar":4.9497e-5,"rev_number":58650,"period_min":96.923793078073,"perigee_km":606.92056542069,"apogee_km":615.83779016031,"semimajor_km":6989.5161777905,"source":"CELESTRAK","updated_at":"2026-05-25T13:38:13.164406Z"}}